Hope, British Columbia

9:16 PM PDT on May 25, 2017 (GMT -0700)
Hope

Weather History for CYHE - February, 2013

Change the Weather History Date:

Tuesday, February 12, 2013

  Actual Average Record
Temperature  
Mean Temperature 44 °F -  
Max Temperature 50 °F 48 °F 51 °F (2003)
Min Temperature 38 °F 33 °F 29 °F (2017)
Degree Days  
Heating Degree Days 21    
Moisture  
Dew Point 40 °F    
Average Humidity 87    
Maximum Humidity 93    
Minimum Humidity 71    
Precipitation  
Precipitation 0.20 in 0.24 in - ()
Sea Level Pressure  
Sea Level Pressure 30.26 in    
Wind  
Wind Speed 10 mph ()    
Max Wind Speed 24 mph    
Max Gust Speed 38 mph    
Visibility 6.3 miles    
Events Rain    
Averages and records for this station are not official NWS values.
T = Trace of Precipitation, MM = Missing Value Source: Averaged Metar Reports

Daily Weather History Graph

Daily Weather History Graph

Search for Another Location

Airport or City:

Trip Planner

Search our weather history database for the weather conditions in past years. The results will help you decide how hot, cold, wet, or windy it might be!

Date:

Astronomy

Feb. 12, 2013 Rise Set
Actual Time 7:19 AM PST 5:21 PM PST
Civil Twilight 6:46 AM PST 5:54 PM PST
Nautical Twilight 6:09 AM PST 6:32 PM PST
Astronomical Twilight 5:32 AM PST 7:09 PM PST
Moon 8:00 AM PST (2/12) 8:50 PM PST (2/12)
Length of Visible Light 11h 08m
Length of Day
10h 01m
Waxing Crescent, 8% of the Moon is Illuminated
Feb 12
Waxing Crescent
Feb 17
First Quarter
Feb 25
Full
Mar 4
Last Quarter
Mar 11
New

Hourly Weather History & Observations

Time (PST) Temp. Windchill Dew Point Humidity Pressure Visibility Wind Dir Wind Speed Gust Speed Precip Events Conditions
12:00 AM 41.0 °F 37.1 °F 39.2 °F 93% 30.31 in 9.0 mi SSW 5.8 mph - N/A Rain Light Rain
12:25 AM 41.0 °F 35.8 °F 39.2 °F 93% 30.31 in 9.0 mi SW 8.1 mph - N/A   Overcast
12:30 AM 41.0 °F 37.1 °F 39.2 °F 93% 30.31 in 9.0 mi SSW 5.8 mph - N/A Rain Light Rain
12:48 AM 41.0 °F 35.2 °F 39.2 °F 93% 30.31 in 6.0 mi West 9.2 mph - N/A Rain Light Rain
12:49 AM 41.0 °F 35.2 °F 39.2 °F 93% 30.31 in 5.0 mi WNW 9.2 mph - N/A Rain Light Rain
12:53 AM 41.0 °F 34.3 °F 39.2 °F 93% 30.31 in 2.5 mi West 11.5 mph - N/A Rain Light Rain
12:58 AM 41.0 °F 34.3 °F 39.2 °F 93% 30.31 in 2.0 mi WSW 11.5 mph - N/A Rain Light Rain
1:00 AM 41 °F - 40 °F 93% 30.30 in - North 10.4 mph - -  
1:00 AM 41.0 °F 35.2 °F 39.2 °F 93% 30.30 in 2.0 mi WSW 9.2 mph - N/A Rain Light Rain
1:18 AM 41.0 °F 36.4 °F 39.2 °F 93% 30.30 in 3.0 mi SSW 6.9 mph - N/A Rain Light Rain
1:47 AM 41.0 °F 34.7 °F 39.2 °F 93% 30.30 in 4.0 mi WSW 10.4 mph - N/A Rain Light Rain
1:48 AM 41.0 °F 34.7 °F 39.2 °F 93% 30.30 in 4.0 mi WSW 10.4 mph - N/A Rain Light Rain
2:00 AM 41.0 °F 36.4 °F 39.2 °F 93% 30.30 in 4.0 mi WSW 6.9 mph - N/A Rain Light Rain
2:08 AM 41.0 °F 35.8 °F 39.2 °F 93% 30.30 in 6.0 mi West 8.1 mph - N/A Rain Light Rain
2:15 AM 41.0 °F 34.7 °F 39.2 °F 93% 30.30 in 7.0 mi West 10.4 mph - N/A Rain Light Rain
2:18 AM 41.0 °F 36.4 °F 39.2 °F 93% 30.30 in 7.0 mi SW 6.9 mph - N/A Rain Light Rain
2:22 AM 41.0 °F 34.7 °F 39.2 °F 93% 30.30 in 7.0 mi WSW 10.4 mph - N/A Rain Light Rain
2:53 AM 41.0 °F 34.7 °F 39.2 °F 93% 30.30 in 5.0 mi WSW 10.4 mph 19.6 mph N/A Rain Light Rain
2:59 AM 41.0 °F 33.9 °F 39.2 °F 93% 30.30 in 4.0 mi WSW 12.7 mph 19.6 mph N/A Rain Light Rain
3:00 AM 41.0 °F 33.5 °F 39.2 °F 93% 30.30 in 4.0 mi WSW 13.8 mph 20.7 mph N/A Rain Light Rain
3:07 AM 42.8 °F 36.6 °F 39.2 °F 87% 30.31 in 6.0 mi WSW 11.5 mph 20.7 mph N/A Rain Light Rain
3:17 AM 42.8 °F 35.4 °F 39.2 °F 87% 30.30 in 7.0 mi West 15.0 mph 21.9 mph N/A Rain Light Rain
3:22 AM 42.8 °F 36.2 °F 39.2 °F 87% 30.31 in 7.0 mi West 12.7 mph 20.7 mph N/A Rain Light Rain
3:26 AM 42.8 °F 36.2 °F 39.2 °F 87% 30.30 in 8.0 mi West 12.7 mph 20.7 mph N/A Rain Light Rain
3:29 AM 42.8 °F 36.6 °F 39.2 °F 87% 30.31 in 8.0 mi WSW 11.5 mph 18.4 mph N/A Rain Light Rain
4:00 AM 42 °F - 40 °F 91% 30.30 in - North 10.4 mph - -  
4:00 AM 42.8 °F 36.6 °F 39.2 °F 87% 30.31 in 7.0 mi West 11.5 mph 17.3 mph N/A Rain Light Rain
4:31 AM 42.8 °F 36.6 °F 39.2 °F 87% 30.30 in 5.0 mi West 11.5 mph 21.9 mph N/A Rain Light Rain
4:54 AM 42.8 °F 36.2 °F 41.0 °F 93% 30.31 in 6.0 mi West 12.7 mph - N/A Rain Light Rain
4:57 AM 42.8 °F 36.2 °F 41.0 °F 93% 30.31 in 7.0 mi SW 12.7 mph - N/A Rain Light Rain
5:00 AM 42.8 °F 37.0 °F 41.0 °F 93% 30.31 in 9.0 mi West 10.4 mph 18.4 mph N/A Rain Light Rain
6:00 AM 42.8 °F 37.0 °F 39.2 °F 87% 30.32 in 9.0 mi WSW 10.4 mph - N/A Rain Light Rain
7:00 AM 42 °F - 40 °F 90% 30.32 in - North 6.9 mph - -  
7:00 AM 42.8 °F 38.6 °F 39.2 °F 87% 30.32 in 9.0 mi SW 6.9 mph - N/A Rain Light Rain
7:06 AM 42.8 °F 36.6 °F 41.0 °F 93% 30.32 in 8.0 mi SW 11.5 mph - N/A Rain Light Rain
8:00 AM 42.8 °F 37.0 °F 41.0 °F 93% 30.31 in 9.0 mi SW 10.4 mph - N/A   Overcast
8:09 AM 42.8 °F 38.6 °F 39.2 °F 87% 30.31 in 9.0 mi SSW 6.9 mph - N/A   Overcast
8:16 AM 42.8 °F 38.0 °F 39.2 °F 87% 30.31 in 9.0 mi SW 8.1 mph - N/A   Overcast
8:23 AM 42.8 °F 37.5 °F 41.0 °F 93% 30.31 in 9.0 mi West 9.2 mph 18.4 mph N/A Rain Light Rain
9:00 AM 44.6 °F 38.4 °F 39.2 °F 81% 30.31 in 9.0 mi West 12.7 mph 19.6 mph N/A Rain Light Rain
9:25 AM 44.6 °F 39.2 °F 39.2 °F 81% 30.31 in 9.0 mi West 10.4 mph 21.9 mph N/A   Overcast
9:30 AM 44.6 °F 38.4 °F 39.2 °F 81% 30.31 in 9.0 mi West 12.7 mph 20.7 mph N/A Rain Light Rain
10:00 AM 44 °F - 40 °F 81% 30.31 in - North 13.8 mph - -  
10:00 AM 44.6 °F 37.2 °F 39.2 °F 81% 30.32 in 9.0 mi West 17.3 mph 24.2 mph N/A Rain Light Rain
10:01 AM 44.6 °F 36.6 °F 39.2 °F 81% 30.32 in 9.0 mi West 19.6 mph - N/A   Overcast
10:31 AM 44.6 °F 38.4 °F 39.2 °F 81% 30.32 in 9.0 mi West 12.7 mph 24.2 mph N/A Rain Light Rain
11:00 AM 44.6 °F 37.4 °F 39.2 °F 81% 30.31 in 9.0 mi West 16.1 mph 27.6 mph N/A Rain Light Rain
11:46 AM 44.6 °F 37.8 °F 39.2 °F 81% 30.31 in 9.0 mi West 15.0 mph 23.0 mph N/A   Overcast
12:00 PM 44.6 °F 38.1 °F 39.2 °F 81% 30.31 in 9.0 mi West 13.8 mph 24.2 mph N/A   Overcast
12:46 PM 46.4 °F 40.4 °F 39.2 °F 76% 30.29 in 9.0 mi West 13.8 mph 28.8 mph N/A Rain Light Rain
1:00 PM 45 °F - 40 °F 78% 30.28 in - North 12.7 mph - -  
1:00 PM 44.6 °F 38.4 °F 39.2 °F 81% 30.28 in 9.0 mi West 12.7 mph 21.9 mph N/A Rain Light Rain
2:00 PM 44.6 °F 38.4 °F 41.0 °F 87% 30.26 in 9.0 mi West 12.7 mph 21.9 mph N/A Rain Light Rain
2:19 PM 44.6 °F 38.4 °F 41.0 °F 87% 30.26 in 5.0 mi WNW 12.7 mph 20.7 mph N/A Rain Light Rain
2:30 PM 44.6 °F 39.2 °F 41.0 °F 87% 30.25 in 7.0 mi West 10.4 mph 19.6 mph N/A Rain Light Rain
2:39 PM 44.6 °F 39.2 °F 41.0 °F 87% 30.25 in 5.0 mi WNW 10.4 mph 20.7 mph N/A Rain Light Rain
2:46 PM 44.6 °F 39.2 °F 41.0 °F 87% 30.25 in 6.0 mi WNW 10.4 mph 17.3 mph N/A Rain Light Rain
3:00 PM 44.6 °F 38.1 °F 41.0 °F 87% 30.25 in 9.0 mi WNW 13.8 mph 21.9 mph N/A Rain Light Rain
3:01 PM 44.6 °F 38.4 °F 41.0 °F 87% 30.25 in 9.0 mi WNW 12.7 mph 21.9 mph N/A   Overcast
3:09 PM 44.6 °F 39.7 °F 41.0 °F 87% 30.25 in 9.0 mi West 9.2 mph 21.9 mph N/A Rain Light Rain
3:24 PM 44.6 °F 38.4 °F 41.0 °F 87% 30.25 in 5.0 mi WNW 12.7 mph 20.7 mph N/A Rain Rain
4:00 PM 44 °F - 42 °F 89% 30.23 in - North 10.4 mph - -  
4:00 PM 44.6 °F 37.8 °F 41.0 °F 87% 30.23 in 4.0 mi West 15.0 mph - N/A Rain Light Rain
4:24 PM 44.6 °F 37.2 °F 41.0 °F 87% 30.22 in 2.5 mi West 17.3 mph - N/A Rain Light Rain
4:38 PM 44.6 °F 37.4 °F 41.0 °F 87% 30.21 in 3.0 mi West 16.1 mph 25.3 mph N/A Rain Light Rain
5:00 PM 44.6 °F 38.1 °F 42.8 °F 93% 30.20 in 3.0 mi West 13.8 mph 35.7 mph N/A Rain Light Rain
5:55 PM 44.6 °F 38.1 °F 42.8 °F 93% 30.19 in 2.5 mi WNW 13.8 mph 28.8 mph N/A Rain Light Rain
6:00 PM 44.6 °F 38.4 °F 42.8 °F 93% 30.19 in 2.5 mi WNW 12.7 mph 25.3 mph N/A Rain Light Rain
6:12 PM 44.6 °F 38.1 °F 42.8 °F 93% 30.19 in 3.0 mi WNW 13.8 mph 26.5 mph N/A Rain Light Rain
6:30 PM 44.6 °F 38.4 °F 42.8 °F 93% 30.19 in 6.0 mi WNW 12.7 mph 25.3 mph N/A Rain Light Rain
7:00 PM 46 °F - 42 °F 80% 30.17 in - North 12.7 mph - -  
7:00 PM 46.4 °F 40.7 °F 41.0 °F 81% 30.18 in 9.0 mi West 12.7 mph 23.0 mph N/A Rain Light Rain
7:25 PM 46.4 °F 40.7 °F 41.0 °F 81% 30.17 in 5.0 mi West 12.7 mph 27.6 mph N/A Rain Rain
7:28 PM 46.4 °F 40.7 °F 41.0 °F 81% 30.17 in 6.0 mi West 12.7 mph 27.6 mph N/A Rain Light Rain
7:31 PM 46.4 °F 40.1 °F 41.0 °F 81% 30.18 in 5.0 mi West 15.0 mph 27.6 mph N/A Rain Light Rain
7:34 PM 46.4 °F 41.1 °F 41.0 °F 81% 30.17 in 6.0 mi WSW 11.5 mph 21.9 mph N/A Rain Light Rain
7:38 PM 46.4 °F 40.4 °F 42.8 °F 87% 30.18 in 5.0 mi West 13.8 mph 21.9 mph N/A Rain Rain
8:00 PM 46.4 °F 40.4 °F 42.8 °F 87% 30.18 in 4.0 mi SW 13.8 mph 24.2 mph N/A Rain Light Rain
8:21 PM 46.4 °F 41.9 °F 42.8 °F 87% 30.18 in 6.0 mi West 9.2 mph 18.4 mph N/A Rain Light Rain
8:40 PM 46.4 °F 40.1 °F 42.8 °F 87% 30.17 in 5.0 mi West 15.0 mph 21.9 mph N/A Rain Light Rain
9:00 PM 46.4 °F 40.1 °F 42.8 °F 87% 30.16 in 4.0 mi West 15.0 mph 21.9 mph N/A Rain Light Rain
9:11 PM 46.4 °F 39.8 °F 42.8 °F 87% 30.16 in 2.5 mi WNW 16.1 mph 26.5 mph N/A Rain Light Rain
9:31 PM 46.4 °F 40.4 °F 42.8 °F 87% 30.16 in 3.0 mi West 13.8 mph 24.2 mph N/A Rain Light Rain
10:00 PM 47 °F - 43 °F 82% 30.14 in - North 15.0 mph - -  
10:00 PM 46.4 °F 40.7 °F 42.8 °F 87% 30.16 in 3.0 mi West 12.7 mph 31.1 mph N/A Rain Light Rain
10:07 PM 48.2 °F - 41.0 °F 76% 30.15 in 3.0 mi West 24.2 mph 33.4 mph N/A Rain Light Rain
10:13 PM 48.2 °F - 42.8 °F 82% 30.15 in 6.0 mi West 15.0 mph 33.4 mph N/A Rain Light Rain
10:22 PM 48.2 °F - 42.8 °F 82% 30.15 in 9.0 mi West 12.7 mph 29.9 mph N/A   Overcast
11:00 PM 50.0 °F - 41.0 °F 71% 30.15 in 9.0 mi WNW 13.8 mph 38.0 mph N/A   Overcast
11:12 PM 50.0 °F - 41.0 °F 71% 30.15 in 9.0 mi NW 15.0 mph 31.1 mph N/A Rain Light Rain